Tracking 28091 objects as of 30-Sep-2023
HD Live streaming from Space Station
objects crossing your sky now

STARLINK-6334

Track STARLINK-6334 now!
10-day predictions
STARLINK-6334 is classified as:


NORAD ID: 57238
Int'l Code: 2023-094W
Perigee: 565.3 km
Apogee: 567.3 km
Inclination: 43.0 °
Period: 95.8 minutes
Semi major axis: 6937 km
RCS: Unknown
Launch date: July 7, 2023
Source: United States (US)
Launch site: AIR FORCE WESTERN TEST RANGE (AFWTR)
Your satellite tracking list
Your tracking list is empty




NASA's NSSDC Master Catalog

Two Line Element Set (TLE):
1 57238U 23094W   23273.25001157  .00029850  00000-0  22171-2 0  9990
2 57238  43.0010 181.6093 0001427 267.8137 286.5390 15.02506377 13341
Source of the keplerian elements: AFSPC